Tracking 19720 objects as of 26-Jun-2019
HD Live streaming from Space Station
objects crossing your sky now

SL-8 DEB

Track SL-8 DEB now!
10-day predictions


NORAD ID: 21187
Int'l Code: 1991-009BA
Perigee: 1,503.8 km
Apogee: 1,789.9 km
Inclination: 74.2 °
Period: 119.1 minutes
Semi major axis: 8017 km
RCS: 0.05 m2 (small)
Launch date: February 12, 1991
Source: Commonwealth of Independent States (former USSR) (CIS)
Launch site: PLESETSK MISSILE AND SPACE COMPLEX (PKMTR)

Note: This is SATELLITE DEBRIS
aabbcc
Your satellite tracking list
Your tracking list is empty




NASA's NSSDC Master Catalog

Two Line Element Set (TLE):
1 21187U 91009BA  19176.49343272 +.00000329 +00000-0 +35995-2 0  9993
2 21187 074.2418 211.9297 0178437 049.8894 074.3760 12.09248967249190
Source of the keplerian elements: AFSPC